Terminal Aerodrome Forecast
Issued by NWS

Home | Current Version | Previous Version | Text Only | Print | Product List | Glossary On
Versions: 1 2 3 4 5 6 7 8 9 10 11 12 13 14 15 16 17 18
000
FTAK31 PAFA 180520
TAFAOM
TAF
PAOM 180520Z 1806/1906 28015KT P6SM -SN SCT015 OVC025
     FM180900 28008KT 6SM -SN BR BKN015 OVC025
     FM181200 09018KT 6SM -SN BR BKN015 OVC025
     FM181800 10025G35KT 1 1/2SM -SN BLSN BKN003 OVC007=

USA.gov is the U.S. government's official web portal to all federal, state and local government web resources and services.